• In Netherlands
  • List of Countries
  • For 7 days
  • Water Temperature
  • Satellite Maps
  • Weather Map
  • Weather Widgets
  • user-avatar
    Login

    Hourly Weather Satif

    Today, 28 February, Tuesday

    Time Temperature Precipitation Wind Pressure Humidity
    00:00 +5°C° 0 mm 2 mps 670 mmHg 71%
    01:00 +5°C° 0 mm 2 mps 670 mmHg 72%
    02:00 +4°C° 0 mm 2 mps 669 mmHg 73%
    03:00 +4°C° 0 mm 2 mps 669 mmHg 73%
    04:00 +4°C° 0 mm 2 mps 669 mmHg 74%
    05:00 +4°C° 0 mm 2 mps 669 mmHg 74%
    06:00 +3°C° 0 mm 2 mps 669 mmHg 74%
    07:00 +6°C° 0 mm 2 mps 670 mmHg 65%
    08:00 +8°C° 0 mm 2 mps 671 mmHg 57%
    09:00 +12°C° 0 mm 2 mps 672 mmHg 48%
    10:00 +13°C° 0 mm 2 mps 672 mmHg 43%
    11:00 +14°C° 0 mm 3 mps 672 mmHg 38%
    12:00 +16°C° 0 mm 3 mps 672 mmHg 33%
    13:00 +16°C° 0 mm 3 mps 672 mmHg 35%
    14:00 +16°C° 0 mm 3 mps 672 mmHg 36%
    15:00 +16°C° 0 mm 3 mps 671 mmHg 37%
    16:00 +13°C° 0 mm 3 mps 671 mmHg 48%
    17:00 +10°C° 0 mm 2 mps 670 mmHg 58%
    18:00 +8°C° 0 mm 2 mps 670 mmHg 68%
    19:00 +8°C° 0 mm 1 mps 670 mmHg 70%
    20:00 +7°C° 0 mm 1 mps 670 mmHg 73%
    21:00 +6°C° 0 mm 1 mps 670 mmHg 75%
    22:00 +6°C° 0 mm 1 mps 670 mmHg 78%
    23:00 +5°C° 0 mm 1 mps 670 mmHg 81%

    Tomorrow, 1 March, Wednesday

    Time Temperature Precipitation Wind Pressure Humidity
    00:00 +5°C° 0 mm 1 mps 670 mmHg 83%
    01:00 +4°C° 0 mm 1 mps 670 mmHg 86%
    02:00 +4°C° 0 mm 1 mps 670 mmHg 89%
    03:00 +4°C° 0 mm 1 mps 670 mmHg 92%
    04:00 +3°C° 0 mm 1 mps 670 mmHg 93%
    05:00 +3°C° 0 mm 1 mps 670 mmHg 93%
    06:00 +3°C° 0 mm 1 mps 671 mmHg 94%
    07:00 +6°C° 0 mm 1 mps 672 mmHg 83%
    08:00 +9°C° 0 mm 1 mps 673 mmHg 72%
    09:00 +12°C° 0 mm 1 mps 674 mmHg 61%
    10:00 +13°C° 0 mm 1 mps 675 mmHg 56%
    11:00 +14°C° 0 mm 1 mps 675 mmHg 50%
    12:00 +16°C° 0 mm 1 mps 675 mmHg 45%
    13:00 +16°C° 0 mm 1 mps 675 mmHg 46%
    14:00 +16°C° 0 mm 2 mps 675 mmHg 46%
    15:00 +16°C° 0 mm 2 mps 675 mmHg 47%
    16:00 +13°C° 0 mm 2 mps 674 mmHg 58%
    17:00 +11°C° 0 mm 1 mps 674 mmHg 69%
    18:00 +8°C° 0 mm 1 mps 673 mmHg 80%
    19:00 +8°C° 0 mm 1 mps 673 mmHg 83%
    20:00 +7°C° 0 mm 1 mps 673 mmHg 86%
    21:00 +7°C° 0 mm 1 mps 673 mmHg 90%
    22:00 +6°C° 0 mm 1 mps 673 mmHg 89%
    23:00 +6°C° 0 mm 1 mps 673 mmHg 89%

    Day after tomorrow, 2 March, Thursday

    Time Temperature Precipitation Wind Pressure Humidity
    00:00 +6°C° 0 mm 1 mps 673 mmHg 89%
    01:00 +6°C° 0 mm 1 mps 673 mmHg 87%
    02:00 +6°C° 0 mm 1 mps 672 mmHg 86%
    03:00 +5°C° 0 mm 2 mps 672 mmHg 84%
    04:00 +5°C° 0 mm 2 mps 672 mmHg 80%
    05:00 +5°C° 0 mm 2 mps 672 mmHg 76%
    06:00 +5°C° 0 mm 2 mps 672 mmHg 72%
    07:00 +7°C° 0 mm 2 mps 673 mmHg 62%
    08:00 +10°C° 0 mm 2 mps 674 mmHg 52%
    09:00 +14°C° 0 mm 2 mps 675 mmHg 42%
    10:00 +16°C° 0 mm 2 mps 675 mmHg 37%
    11:00 +17°C° 0 mm 3 mps 675 mmHg 33%
    12:00 +19°C° 0 mm 3 mps 675 mmHg 28%
    13:00 +19°C° 0 mm 3 mps 675 mmHg 29%
    14:00 +19°C° 0 mm 3 mps 674 mmHg 30%
    15:00 +19°C° 0 mm 2 mps 674 mmHg 31%
    16:00 +16°C° 0 mm 2 mps 673 mmHg 42%
    17:00 +13°C° 0 mm 2 mps 672 mmHg 53%
    18:00 +10°C° 0 mm 1 mps 672 mmHg 64%
    19:00 +9°C° 0 mm 1 mps 672 mmHg 65%
    20:00 +9°C° 0 mm 1 mps 672 mmHg 66%
    21:00 +8°C° 0 mm 1 mps 672 mmHg 67%
    22:00 +8°C° 0 mm 1 mps 672 mmHg 65%
    23:00 +7°C° 0 mm 2 mps 671 mmHg 64%

    3 March, Friday

    Time Temperature Precipitation Wind Pressure Humidity
    00:00 +7°C° 0 mm 2 mps 671 mmHg 62%
    01:00 +7°C° 0 mm 2 mps 671 mmHg 62%
    02:00 +7°C° 0 mm 2 mps 670 mmHg 61%
    03:00 +7°C° 0 mm 2 mps 670 mmHg 61%
    04:00 +6°C° 0 mm 2 mps 669 mmHg 60%
    05:00 +6°C° 0 mm 2 mps 669 mmHg 60%
    06:00 +6°C° 0 mm 2 mps 669 mmHg 59%
    07:00 +9°C° 0 mm 3 mps 670 mmHg 52%
    08:00 +12°C° 0 mm 3 mps 671 mmHg 44%
    09:00 +14°C° 0 mm 4 mps 671 mmHg 37%
    10:00 +17°C° 0 mm 4 mps 671 mmHg 33%
    11:00 +18°C° 0 mm 4 mps 671 mmHg 30%
    12:00 +20°C° 0 mm 5 mps 671 mmHg 27%
    13:00 +20°C° 0 mm 5 mps 670 mmHg 27%
    14:00 +20°C° 0 mm 5 mps 670 mmHg 27%
    15:00 +19°C° 0 mm 5 mps 669 mmHg 27%
    16:00 +17°C° 0 mm 4 mps 668 mmHg 32%
    17:00 +14°C° 0 mm 3 mps 668 mmHg 38%
    18:00 +11°C° 0 mm 3 mps 667 mmHg 43%
    19:00 +11°C° 0 mm 3 mps 667 mmHg 43%
    20:00 +10°C° 0 mm 3 mps 668 mmHg 44%
    21:00 +10°C° 0 mm 3 mps 668 mmHg 45%
    22:00 +9°C° 0 mm 3 mps 668 mmHg 46%
    23:00 +9°C° 0 mm 2 mps 668 mmHg 47%

    4 March, Saturday

    Time Temperature Precipitation Wind Pressure Humidity
    00:00 +8°C° 0 mm 2 mps 668 mmHg 49%
    01:00 +8°C° 0 mm 2 mps 668 mmHg 51%
    02:00 +9°C° 0 mm 1 mps 667 mmHg 53%
    03:00 +9°C° 0 mm 1 mps 667 mmHg 55%
    04:00 +8°C° 0 mm 1 mps 667 mmHg 57%
    05:00 +8°C° 0 mm 1 mps 667 mmHg 59%
    06:00 +7°C° 0 mm 1 mps 667 mmHg 61%
    07:00 +9°C° 0.1 mm 1 mps 668 mmHg 55%
    08:00 +12°C° 0.1 mm 2 mps 668 mmHg 48%
    09:00 +14°C° 0.1 mm 2 mps 669 mmHg 42%
    10:00 +15°C° 0.1 mm 2 mps 669 mmHg 39%
    11:00 +16°C° 0.1 mm 3 mps 669 mmHg 37%
    12:00 +18°C° 0.1 mm 3 mps 669 mmHg 35%
    13:00 +17°C° 0.2 mm 3 mps 668 mmHg 40%
    14:00 +16°C° 0.2 mm 3 mps 667 mmHg 46%
    15:00 +13°C° 0.2 mm 3 mps 666 mmHg 51%
    16:00 +13°C° 0.5 mm 2 mps 666 mmHg 58%
    17:00 +12°C° 0.5 mm 2 mps 666 mmHg 65%
    18:00 +10°C° 0.5 mm 1 mps 665 mmHg 72%
    19:00 +10°C° 0.3 mm 1 mps 665 mmHg 75%
    20:00 +10°C° 0.3 mm 1 mps 665 mmHg 77%
    21:00 +8°C° 0.3 mm 2 mps 665 mmHg 79%
    22:00 +8°C° 0.9 mm 2 mps 665 mmHg 82%
    23:00 +8°C° 0.9 mm 2 mps 665 mmHg 84%

    5 March, Sunday

    Time Temperature Precipitation Wind Pressure Humidity
    00:00 +8°C° 0.9 mm 2 mps 665 mmHg 87%
    01:00 +7°C° 0.5 mm 2 mps 665 mmHg 88%
    02:00 +7°C° 0.5 mm 2 mps 665 mmHg 90%
    03:00 +7°C° 0.5 mm 2 mps 665 mmHg 91%
    04:00 +7°C° 0.4 mm 2 mps 665 mmHg 92%
    05:00 +6°C° 0.4 mm 2 mps 666 mmHg 93%
    06:00 +5°C° 0.4 mm 3 mps 666 mmHg 94%
    07:00 +5°C° 1 mm 3 mps 667 mmHg 93%
    08:00 +5°C° 1 mm 3 mps 668 mmHg 92%
    09:00 +5°C° 1 mm 3 mps 668 mmHg 90%
    10:00 +6°C° 0.3 mm 4 mps 669 mmHg 88%
    11:00 +6°C° 0.3 mm 4 mps 669 mmHg 85%
    12:00 +6°C° 0.3 mm 4 mps 670 mmHg 83%
    13:00 +7°C° 0.1 mm 4 mps 670 mmHg 79%
    14:00 +7°C° 0.1 mm 4 mps 670 mmHg 76%
    15:00 +7°C° 0.1 mm 4 mps 670 mmHg 72%
    16:00 +7°C° 0 mm 3 mps 670 mmHg 78%
    17:00 +4°C° 0 mm 3 mps 670 mmHg 83%
    18:00 +4°C° 0 mm 2 mps 671 mmHg 88%
    19:00 +4°C° 0 mm 2 mps 671 mmHg 90%
    20:00 +3°C° 0 mm 2 mps 671 mmHg 92%
    21:00 +4°C° 0 mm 1 mps 672 mmHg 94%
    22:00 +3°C° 0 mm 1 mps 671 mmHg 94%
    23:00 +2°C° 0 mm 1 mps 671 mmHg 94%
    Show more